sat.trackr.live / text

‹ back to catalog

IRIDE FM7

NORAD 66701 · 2025-276AM

PAYLOAD ACTIVE UNKNOWN

§ Identity

Operator
Country
IT
Launch date
2025-11-28
Launch site
AFWTR
Launch vehicle
Mass (kg)
RCS (m²)

External: N2YO · Heavens-Above · Gunter

§ Orbital elements

Epoch: 2026-05-25T03:26:44.596608Z

Period
94.74 min
Inclination
97.4221°
Eccentricity
0.0005960
Mean motion
15.19909021 rev/d
Perigee alt
502.0 km
Apogee alt
510.2 km
Semi-major
6,884.3 km
B*
3.3757e-4
RAAN
219.1437°
Arg perigee
86.1865°
Mean anomaly
274.0051°
Rev number
2,692

§ Raw data

IRIDE FM71 66701U 25276AM  26145.14357172  .00007188  00000+0  33757-3 0  99912 66701  97.4221 219.1437 0005960  86.1865 274.0051 15.19909021 26923

JSON: /api/v1/satellites/66701 · /tle

For live sub-satellite position, see the globe view (requires WebGL).

§ Visibility from observer

Set your observer location to see the next 7 days of passes ≥ 10°. The values pass through the URL so the page stays shareable.

No JS? Fill the form by hand. The geolocation button needs JavaScript.